This is the latest recevied weather packets stored in our database for station/object KF0JHJ. If no packets are shown the sender has not sent any weather packets the latest 10 day(s).
| Time | Temp. | Humidity | Pressure | Rain* | Wind** | Luminosity | Snow |
|---|---|---|---|---|---|---|---|
| 1778129999 | 2.22° C | 73% | 1012.3 hPa | - | - | 0 W/m² | - |
| 1778129695 | 2.22° C | 73% | 1012.6 hPa | - | - | 0 W/m² | - |
| 1778129393 | 2.22° C | 72% | 1012.4 hPa | - | - | 0 W/m² | - |
| 1778129090 | 2.22° C | 73% | 1012.2 hPa | - | - | 0 W/m² | - |
| 1778128785 | 2.78° C | 73% | 1012.3 hPa | - | - | 0 W/m² | - |
| 1778128482 | 2.78° C | 72% | 1012.4 hPa | - | - | 0 W/m² | - |
| 1778128178 | 2.22° C | 74% | 1012.3 hPa | - | - | 0 W/m² | - |
| 1778127876 | 1.67° C | 75% | 1012.4 hPa | - | - | 0 W/m² | - |
| 1778127571 | 2.22° C | 72% | 1012.6 hPa | - | - | 0 W/m² | - |
| 1778127268 | 1.67° C | 75% | 1012.4 hPa | - | - | 0 W/m² | - |
| 1778126965 | 1.67° C | 75% | 1012.5 hPa | - | - | 0 W/m² | - |
| 1778126661 | 1.67° C | 76% | 1012.4 hPa | - | - | 0 W/m² | - |
| 1778126357 | 2.22° C | 77% | 1012.6 hPa | - | - | 0 W/m² | - |
| 1778126053 | 2.22° C | 76% | 1012.4 hPa | - | - | 0 W/m² | - |
| 1778125750 | 2.22° C | 74% | 1012.7 hPa | - | - | 0 W/m² | - |
| 1778125447 | 1.67° C | 70% | 1012.6 hPa | - | - | 0 W/m² | - |
| 1778125145 | 1.67° C | 69% | 1012.5 hPa | - | - | 0 W/m² | - |
| 1778124843 | 1.67° C | 69% | 1012.8 hPa | - | - | 0 W/m² | - |
| 1778124540 | 2.22° C | 68% | 1012.7 hPa | - | - | 0 W/m² | - |
| 1778124236 | 2.22° C | 69% | 1012.6 hPa | - | - | 0 W/m² | - |
| 1778123932 | 2.78° C | 67% | 1012.5 hPa | - | - | 0 W/m² | - |
| 1778123629 | 3.33° C | 64% | 1012.7 hPa | - | - | 0 W/m² | - |
| 1778123326 | 3.33° C | 65% | 1012.7 hPa | - | - | 0 W/m² | - |
| 1778123024 | 3.33° C | 65% | 1012.7 hPa | - | - | 0 W/m² | - |
| 1778122720 | 2.78° C | 65% | 1013 hPa | - | - | 0 W/m² | - |
* Rain since midnight (hover to see other rain measurements)
** Current wind speed in m/s (hover to see current wind gust speed)